Powrót do katalogu

STARLINK-35275

AktywnyŁącznośćVLEO
NORAD 65756·PAYLOAD·🇺🇸 United States

Wystrzelony Sep 25, 2025 z Cape Canaveral Space Force Station

Loading…

Następne Przeloty (najbliższe 24 godziny)

TLE

ŚwieżeSource: CelesTrak SupGP

Epoka: Sep 14, 2026, 21:43 UTC

1 65756C 25216Y   26257.90534722 -.00019630  00000+0 -57976-3 0  2573
2 65756  53.1566 172.0500 0001289  91.6795 168.7160 15.34412071    17

Śledź STARLINK-35275 w czasie rzeczywistym z AllMySat

Download on the App Store